Regional Weather Roundup
Issued by NWS

Home | Current Version | Previous Version | Text Only | Print | Product List | Glossary On
Versions: 1 2 3 4 5 6 7 8 9 10 11 12 13 14 15 16 17 18 19 20 21 22 23 24 25 26 27 28 29 30 31 32 33 34 35 36 37 38 39 40 41 42 43 44 45 46 47 48 49 50
000
ASUS43 KFSD 181302
RWRSD

WEATHER ROUNDUP FOR SOUTH DAKOTA
NATIONAL WEATHER SERVICE SIOUX FALLS SD
800 AM CDT FRI APR 18 2014

NOTE: "FAIR" INDICATES FEW OR NO CLOUDS BELOW 12,000 FEET WITH NO
SIGNIFICANT WEATHER AND/OR OBSTRUCTIONS TO VISIBILITY.


SDZ001>005-009-010-012>017-181400-
NORTHWEST AND NORTH CENTRAL SOUTH DAKOTA

CITY           SKY/WX    TMP DP  RH WIND       PRES   REMARKS
FAITH            N/A     34  27  75 SE16      29.87R WCI  24
MOBRIDGE       SUNNY     35  26  69 E17       29.97S WCI  25
$$

SDZ012>016-024>037-041>051-057-063-072>074-181400-
SOUTHWEST AND SOUTH CENTRAL SOUTH DAKOTA

CITY           SKY/WX    TMP DP  RH WIND       PRES   REMARKS
RAPID CTY ARPT PTCLDY    35  32  88 E5        29.81F
PIERRE         SUNNY     37  27  67 SE17      29.95F
CUSTER         PTCLDY    45  27  49 W9        29.87S
ELLSWORTH AFB  PTCLDY    39  35  87 S5        29.81S
PHILIP         SUNNY     37  32  82 E10       29.87F
PINE RIDGE     CLEAR     44  37  76 S17       29.87R
WINNER         FAIR      46  35  65 S31G41    29.93F
$$

SDZ004>011-016>023-039-040-181400-
NORTHEAST SOUTH DAKOTA

CITY           SKY/WX    TMP DP  RH WIND       PRES   REMARKS
ABERDEEN       CLOUDY    36  24  62 E14       30.12F
WATERTOWN      CLOUDY    34  27  75 SE13G21   30.18F WCI  25
SISSETON         N/A     32  25  75 SE13      30.24F WCI  22
$$

SDZ017-020-022-023-036>040-048>070-181400-
SOUTHEAST SOUTH DAKOTA

CITY           SKY/WX    TMP DP  RH WIND       PRES   REMARKS
SIOUX FALLS    CLOUDY    35  29  78 SE16      30.21F WCI  25
HURON          CLOUDY    38  28  67 SE15G28   30.10F
CHAMBERLAIN      N/A     39  27  62 SE21      30.00F
MITCHELL       CLOUDY    39  29  67 SE18      30.13F
YANKTON        CLOUDY    36  28  75 E12       30.20S
$$

ABBREVIATIONS USED IN REMARKS
   TC - TEMPERATURE IN CELSIUS
  WCI - WIND CHILL INDEX
   HX - HEAT INDEX
  VSB - VISIBILITY




USA.gov is the U.S. government's official web portal to all federal, state and local government web resources and services.